Regional Weather Roundup
Issued by NWS

Home | Current Version | Previous Version | Graphics & Text | Print | Product List | Glossary Off
Versions: 1 2 3 4 5 6 7 8 9 10 11 12 13 14 15 16 17 18 19 20 21 22 23 24 25 26 27 28 29 30 31 32 33 34 35 36 37 38 39 40 41 42 43 44 45 46 47 48 49 50

000
ASUS43 KMPX 201801
RWRMN
WEATHER ROUNDUP FOR MINNESOTA
NATIONAL WEATHER SERVICE TWIN CITIES/CHANHASSEN MN
100 PM CDT FRI APR 20 2018


NOTE: "FAIR" INDICATES FEW OR NO CLOUDS BELOW 12,000 FEET WITH NO
SIGNIFICANT WEATHER AND/OR OBSTRUCTIONS TO VISIBILITY. N/A MEANS
CURRENT SKY AND/OR WEATHER CONDITIONS ARE NOT AVAILABLE.

MNZ060>063-068>070-201900-
   Twin Cities Metro

CITY           SKY/WX    TMP DP  RH WIND       PRES   REMARKS
TWIN CITIES    PTSUNNY   48  18  30 S3        30.49F
6HR MIN TEMP:  28; 6HR MAX TEMP:  50;

ST PAUL        FAIR      49  23  36 SE9       30.50F
CRYSTAL        FAIR      49  17  28 CALM      30.47F
BLAINE         PTSUNNY   52  19  28 S6        30.48F
LAKEVILLE      FAIR      45  23  42 S5        30.50S
EDEN PRAIRIE   FAIR      48  24  39 SW7       30.47F
6HR MIN TEMP:  26; 6HR MAX TEMP:  48;

SOUTH ST PAUL  FAIR      49  20  31 CALM      30.49S
LAKE ELMO      FAIR      48  27  43 S5        30.49F
$$
MNZ001>005-007-008-013>017-022>024-027-028-201900-
   Northwest Minnesota

CITY           SKY/WX    TMP DP  RH WIND       PRES   REMARKS
BEMIDJI        FAIR      52  27  37 E3        30.40F
HALLOCK        FAIR      55  41  58 S10       30.38F
ROSEAU         FAIR      54  37  54 SW9       30.39F
WARROAD        FAIR      55  32  41 S8        30.39F
THIEF RVR FALL FAIR      52  29  41 SW9       30.42S
CROOKSTON      FAIR      52  36  54 W9        30.43S
FOSSTON        FAIR      54  28  37 SW7       30.42F
DETROIT LAKES  FAIR      52  28  40 S7        30.42F
MOORHEAD       FAIR      52  27  37 S12       30.43F
PARK RAPIDS    FAIR      52  28  39 VRB3      30.41F
MAHNOMEN       FAIR      52  29  40 S5        30.41F
$$
MNZ006-009>011-018-025>026-201900-
   North Central Minnesota

CITY           SKY/WX    TMP DP  RH WIND       PRES   REMARKS
BAUDETTE       FAIR      56  28  34 VRB3      30.38F
FLAG ISLAND    FAIR      39  28  65 SE10      30.38F
INTL FALLS     FAIR      55  21  26 VRB3      30.40F
6HR MIN TEMP:  23; 6HR MAX TEMP:  55;

WASKISH        FAIR      54  34  47 W6        30.41F
BIG FORK       FAIR      55  25  30 S5        30.40F
LONGVILLE      FAIR      54  25  32 CALM      30.42F
GRAND RAPIDS   FAIR      52  23  32 CALM      30.43F
CRANE LAKE     FAIR      54  10  17 CALM      30.42F
ORR            FAIR      54  14  20 CALM      30.38F
COOK           FAIR      55  19  24 CALM      30.41F
WALKER         FAIR      53  29  40 E9        30.40F
$$
MNZ012-019>021-037-201900-
   Northeast Minnesota

CITY           SKY/WX    TMP DP  RH WIND       PRES   REMARKS
DULUTH         FAIR      53  22  29 W9        30.42F
6HR MIN TEMP:  34; 6HR MAX TEMP:  54;

ELY            FAIR      54   9  16 CALM      30.40F
HIBBING        FAIR      54  19  25 VRB5      30.40F
EVELETH        FAIR      55  18  23 CALM      30.42S
DULUTH HARBOR  FAIR      57  21  24 S3        30.44S
TWO HARBORS    FAIR      57  32  38 S12       30.40F
SILVER BAY     FAIR      55  21  26 S12       30.40S
GRAND MARAIS     N/A     37  32  82 SW6       30.43F
G MARAIS ARPRT FAIR      52   9  17 S6        30.41S
$$
MNZ029>031-032-039>041-046>048-054>057-064-201900-
   West Central Minnesota

CITY           SKY/WX    TMP DP  RH WIND       PRES   REMARKS
FERGUS FALLS   FAIR      50  25  37 S10       30.41F
WHEATON        PTSUNNY   48  34  57 E9        30.44F
MORRIS         CLOUDY    48  30  49 S10       30.43F
ALEXANDRIA     FAIR      51  23  33 S8        30.45S
ELBOW LAKE     FAIR      49  25  38 SE12      30.44F
WADENA         FAIR      50  27  40 S8        30.43F
GLENWOOD       FAIR      48  25  40 SE8       30.45F
APPLETON       MOSUNNY   46  30  53 SE7       30.44F
BENSON         MOSUNNY   48  30  49 S9        30.46F
ORTONVILLE     MOSUNNY   46  30  53 SE10      30.43S
MADISON        MOSUNNY   43  32  65 E9        30.44F
WILLMAR        FAIR      46  32  57 S7        30.49S
$$
MNZ033>034-036-042>043-049>051-058-059-201900-
   Central Minnesota

CITY           SKY/WX    TMP DP  RH WIND       PRES   REMARKS
ST CLOUD       FAIR      49  21  33 S12       30.47F
6HR MIN TEMP:  26; 6HR MAX TEMP:  49;

SAUK CENTRE    FAIR      47  24  39 SE8       30.45F
PAYNESVILLE    FAIR      47  27  46 S8        30.47F
AITKIN         FAIR      52  25  35 S8        30.42F
PINE RIVER     FAIR      50  27  40 CALM      30.45S
BRAINERD       FAIR      53  27  36 S9        30.44F
STAPLES        FAIR      50  19  29 S9        30.44S
LONG PRAIRIE   FAIR      48  23  37 E6        30.45F
LITTLE FALLS   FAIR      48   9  20 S6        30.46F
LITCHFIELD     FAIR      46  25  42 S3        30.48F
BUFFALO        FAIR      46  21  37 S7        30.49F
MAPLE LAKE     FAIR      47  25  42 SW7       30.49F
HUTCHINSON     FAIR      43  26  50 SE6       30.50F
$$
MNZ037-044-045-052-053-201900-
   East Central Minnesota

CITY           SKY/WX    TMP DP  RH WIND       PRES   REMARKS
PRINCETON      FAIR      54  21  28 SW6       30.47F
MORA           FAIR      50  27  40 SW8       30.48F
CAMBRIDGE      FAIR      52  28  40 S3        30.47F
RUSH CITY      FAIR      50  23  34 S6        30.47F
MOOSE LAKE     FAIR      52  28  40 CALM      30.42F
HINCKLEY       FAIR      52  28  40 W8        30.45F
CLOQUET        FAIR      54  19  26 SW8       30.42F
MCGREGOR       FAIR      54  28  37 SW7G16    30.43F
$$
MNZ071>073-080-081-089-090-097-098-201900-
   Southwest Minnesota

CITY           SKY/WX    TMP DP  RH WIND       PRES   REMARKS
MONTEVIDEO     MOSUNNY   46  32  57 S8        30.46S
GRANITE FALLS  MOSUNNY   42  29  60 SE9       30.47F
CANBY          CLOUDY    42  32  67 SE5       30.44F
MARSHALL       PTSUNNY   41  28  60 SE12      30.44F
REDWOOD FALLS  MOSUNNY   38  28  67 SE12      30.47F
OLIVIA         MOSUNNY   43  32  65 SE10      30.47S
PIPESTONE      MOSUNNY  N/A N/A N/A SE9       30.40F
WINDOM         CLOUDY    39  19  45 E8        30.45F
WORTHINGTON    CLOUDY    39  30  70 SE10      30.43F
JACKSON        CLOUDY    36  27  69 SE8       30.46F
TRACY          CLOUDY    41  32  69 SE7       30.44F
SLAYTON        CLOUDY    38  31  74 SE10      30.44F
$$
MNZ065>067-074>077-082>085-091>093-201900-
   South Central Minnesota

CITY           SKY/WX    TMP DP  RH WIND       PRES   REMARKS
MANKATO        FAIR      42  26  53 SE7       30.50F
NEW ULM        PTSUNNY   41  21  45 S8        30.48F
ST JAMES       PTSUNNY   36  27  69 SE7       30.50F
FAIRMONT       PTSUNNY   36  25  64 SE7       30.49S
GLENCOE        FAIR      43  27  53 SW3       30.48F
FARIBAULT      FAIR      46  25  42 CALM      30.49F
OWATONNA       FAIR      45  27  49 S5        30.48F
WASECA         FAIR      41  27  56 SE6       30.50F
ALBERT LEA     FAIR      41  19  42 E5        30.48F
$$
MNZ078>079-086>088-094>096-201900-
   Southeast Minnesota

CITY           SKY/WX    TMP DP  RH WIND       PRES   REMARKS
ROCHESTER      FAIR      44  30  57 SE5       30.49F
6HR MIN TEMP:  24; 6HR MAX TEMP:  44;

RED WING       FAIR      52  16  24 S6        30.48F
STANTON        FAIR      46  29  52 SW7       30.48F
DODGE CENTER   FAIR      43  28  56 S6        30.49F
WINONA         FAIR      52  23  32 CALM      30.47F
AUSTIN         FAIR      39  23  52 SE5       30.49F
PRESTON        FAIR      43  24  47 S5        30.49F
$$
ABBREVIATIONS USED IN REMARKS
   TC - TEMPERATURES IN CELSIUS
  WCI - WIND CHILL INDEX
   HX - HEAT INDEX
  VSB - VISIBILITY
$$




USA.gov is the U.S. government's official web portal to all federal, state and local government web resources and services.